GFSFLT1_sfc_temp_273.txt.gz
Temp
88 87 87 85 84 83 84 83 81 80 77 76 78 78 77 77 77 75 74 75 74 73 72 72 73 74 74 74 73 73 73 72 71
82 86 86 85 85 84 83 81 79 79 77 77 78 78 77 76 77 76 75 74 73 72 73 77 75 75 74 74 73 72 72 72 72
84 86 83 86 86 85 84 83 81 81 79 77 78 77 77 77 77 76 76 75 74 74 75 75 75 74 73 72 72 72 71 70 72
85 84 83 85 85 85 85 85 82 81 80 80 77 78 77 77 76 78 76 75 75 75 76 75 74 74 72 72 71 71 70 70 69
87 86 85 86 85 83 83 82 82 81 81 80 81 77 77 76 76 76 76 76 76 76 76 74 73 73 72 72 71 70 69 68 67
72 75 82 84 82 81 81 81 80 79 78 79 75 77 76 75 77 76 76 76 74 75 74 73 73 73 72 72 71 70 69 68 67
73 71 73 82 81 81 79 78 77 74 75 73 74 76 75 74 75 76 74 74 73 73 73 72 72 72 72 72 72 70 70 68 67
73 70 75 82 80 77 78 78 77 76 76 77 75 74 74 74 75 76 73 73 73 72 71 73 72 71 71 71 73 74 68 67 67
81 82 82 82 79 79 78 79 79 78 75 76 76 75 73 75 75 71 73 71 72 72 71 71 70 70 69 69 75 69 70 69 65
82 82 81 79 80 80 79 80 81 76 74 75 73 73 74 73 71 71 70 72 71 70 69 69 68 67 66 65 63 65 66 68 64
81 81 79 79 79 80 81 81 81 75 74 73 72 72 71 70 69 70 70 71 68 68 67 66 64 64 64 59 61 62 63 67 64
81 79 77 78 78 77 74 74 71 68 66 66 69 68 68 68 68 68 69 68 66 65 63 62 62 64 62 57 57 59 60 61 60
77 77 75 75 77 78 71 70 68 66 66 66 66 66 67 69 69 69 66 65 65 64 65 63 64 64 59 59 55 58 59 59 57
75 74 74 77 75 72 72 69 69 66 65 64 66 69 68 67 68 66 65 65 64 64 63 63 61 61 58 57 55 54 57 57 55
72 72 73 73 70 69 70 70 68 66 65 67 69 66 66 65 64 67 66 63 63 61 59 57 57 56 56 58 57 58 57 56 56
72 72 70 70 68 68 68 69 67 64 67 68 65 64 63 63 64 65 64 62 59 58 57 55 55 54 52 53 55 54 55 55 55
71 72 70 70 67 65 64 65 64 64 64 65 64 63 62 62 61 61 62 62 61 57 55 53 53 52 50 50 52 52 51 51 50
71 71 70 69 67 65 64 63 63 64 64 64 63 62 61 60 60 60 60 58 57 58 55 55 53 51 50 48 46 49 47 45 47
70 69 69 68 66 64 63 63 62 62 63 63 62 61 60 60 59 59 60 57 56 57 55 53 51 51 51 51 51 50 46 45 45
67 69 68 66 64 63 62 62 62 63 64 63 61 59 59 58 59 59 57 57 56 54 52 52 51 50 50 49 50 47 46 46 46

GFSFLT1_sfc_temp_276.txt.gz
Temp
73 73 73 74 81 80 80 80 79 78 75 73 75 75 75 75 74 73 72 71 71 69 68 69 71 71 71 70 70 70 69 69 70
73 75 74 80 82 81 80 78 77 77 75 74 75 75 74 74 74 73 72 70 70 70 71 74 73 72 70 70 70 69 69 68 68
75 80 81 82 82 80 79 79 78 78 77 75 75 74 75 75 74 73 71 71 71 72 72 72 72 72 71 70 69 69 68 66 66
73 80 81 81 81 80 79 79 78 77 77 75 74 75 74 74 73 73 72 72 72 72 72 71 71 71 70 70 68 68 67 66 65
73 73 83 82 81 81 78 77 77 77 77 76 77 75 74 73 73 73 72 71 72 73 72 71 70 70 70 70 69 68 67 66 65
76 79 81 81 80 78 77 77 77 77 75 77 75 74 73 72 72 72 71 71 71 71 71 70 71 70 69 69 69 68 67 67 65
75 75 76 74 76 79 78 78 77 74 74 74 73 73 72 71 71 71 71 70 71 71 71 70 70 69 68 68 68 69 68 66 65
71 70 73 74 75 74 75 76 73 73 72 73 73 71 71 71 71 70 70 70 70 70 69 69 68 67 66 66 68 69 65 65 64
72 74 75 75 78 77 75 75 72 73 72 70 70 68 70 70 70 69 69 69 69 68 68 67 66 64 61 59 66 65 67 66 61
76 79 77 77 73 75 77 72 73 71 70 70 70 70 70 70 68 68 69 68 68 67 65 64 63 60 57 56 59 62 64 65 59
77 76 77 77 75 78 72 72 71 72 71 69 69 68 67 68 68 67 67 67 66 66 64 63 60 57 56 55 59 61 61 62 54
77 76 76 76 79 76 71 71 71 69 69 68 68 66 66 66 66 66 65 63 62 62 63 62 60 57 55 54 53 59 59 55 51
74 74 72 71 73 73 71 67 67 66 67 67 66 65 66 67 65 64 62 61 61 61 61 61 60 56 53 57 51 57 57 55 51
72 71 70 70 69 67 65 66 67 66 65 64 64 66 64 63 63 62 61 59 59 58 57 58 55 55 53 52 52 51 55 55 50
69 68 68 69 67 66 65 66 66 63 63 65 66 63 63 61 61 64 62 58 55 55 54 53 51 51 51 51 50 55 54 54 54
67 67 66 67 66 64 64 65 66 64 63 64 62 61 59 59 60 61 60 57 54 54 53 52 51 50 47 47 50 48 53 52 53
66 66 65 65 65 63 62 62 63 64 63 62 61 59 59 59 58 57 56 56 55 53 51 50 50 49 47 46 47 47 46 46 44
66 65 65 64 62 61 60 60 60 61 61 61 59 58 58 57 56 56 54 54 53 54 52 53 51 49 49 48 47 49 48 45 46
66 64 63 62 60 59 58 59 59 59 60 60 58 57 56 56 55 54 54 54 53 52 53 52 51 49 50 50 50 50 48 46 46
63 64 63 62 60 59 59 58 58 59 59 59 58 57 55 56 56 55 54 53 52 52 52 51 49 48 48 48 50 47 46 44 44

GFSFLT1_sfc_temp_279.txt.gz
Temp
78 75 71 72 74 77 76 77 76 76 72 72 73 73 73 73 73 72 70 69 69 68 68 68 69 69 68 68 68 68 68 66 66
74 76 73 73 75 76 76 76 76 75 73 73 73 74 73 73 72 71 70 69 68 68 68 71 71 70 69 68 68 68 66 64 63
72 73 73 74 77 76 76 76 75 75 75 74 74 73 73 72 71 70 69 68 69 69 69 70 70 70 69 68 68 67 65 63 63
73 75 78 79 77 76 76 76 76 75 74 73 73 73 72 71 70 70 69 69 69 70 70 70 69 69 69 68 68 67 65 65 64
74 74 77 78 78 75 75 75 75 75 75 75 75 74 73 72 70 69 69 69 70 70 70 69 69 68 68 68 67 67 65 65 64
73 74 77 79 75 73 74 74 75 75 75 75 74 74 73 70 69 69 68 69 70 70 70 69 68 68 67 66 66 65 65 64 63
73 71 75 75 73 75 74 75 75 74 74 75 74 73 70 68 68 69 70 69 70 69 69 68 66 65 64 64 63 64 63 63 61
69 68 72 74 74 72 74 74 74 74 74 74 73 72 69 69 69 69 69 68 68 68 67 65 63 61 60 61 63 65 61 60 59
72 71 75 75 75 76 74 75 72 69 68 67 69 68 68 70 68 68 68 68 67 67 65 63 61 56 56 56 62 63 65 60 55
74 75 75 74 76 74 73 69 70 68 68 69 69 69 69 69 68 68 67 66 65 64 61 61 58 56 56 54 56 61 62 61 52
75 78 75 72 68 70 69 69 69 70 70 69 68 68 68 68 68 67 66 64 62 61 59 57 55 54 53 53 57 59 59 58 49
76 77 70 69 70 71 69 69 70 68 68 68 69 68 67 66 67 65 63 61 60 59 58 54 53 52 51 50 50 57 57 52 48
73 72 71 72 73 71 69 68 69 68 67 67 66 65 65 66 66 63 61 59 58 57 57 55 55 52 50 55 48 56 56 52 47
68 68 70 71 70 69 67 66 68 67 66 63 64 66 65 65 62 61 59 57 54 55 55 54 52 51 49 49 50 49 55 55 47
67 68 67 67 65 65 65 65 66 64 63 64 65 65 65 60 58 62 59 55 52 52 51 49 48 47 47 48 48 53 53 54 54
67 66 66 66 65 64 63 63 64 63 62 63 61 62 58 57 58 57 55 54 51 50 49 48 48 48 47 47 48 47 52 53 54
65 65 64 64 64 62 61 62 63 62 62 62 61 58 56 56 56 54 53 53 52 50 49 48 48 48 46 46 46 47 46 46 45
63 63 63 63 61 61 59 60 59 60 60 60 58 56 56 55 55 54 52 51 51 52 51 53 50 48 48 47 48 49 49 46 45
63 62 61 60 59 59 58 58 58 58 59 58 56 55 55 54 53 52 52 51 50 52 51 51 49 48 50 51 50 49 48 46 45
61 61 61 60 59 57 58 57 57 57 58 58 57 55 54 53 53 52 51 50 51 51 53 51 49 46 46 47 49 47 45 45 45

GFSFLT1_sfc_temp_285.txt.gz
Temp
86 86 87 87 87 86 85 84 83 82 80 80 80 80 81 82 82 83 83 80 83 84 84 83 80 81 81 79 79 79 78 80 78
85 87 86 87 88 88 87 85 83 83 82 81 81 81 81 81 82 81 79 80 81 83 82 83 80 80 80 80 79 78 77 78 76
89 87 85 87 87 87 87 87 86 85 84 82 83 83 82 82 82 81 81 80 80 80 81 82 80 80 80 80 79 78 77 78 76
88 88 85 86 87 86 86 86 85 85 84 83 82 82 82 81 82 82 80 81 81 81 81 80 80 79 79 79 78 77 76 75 74
86 86 86 85 87 85 85 83 84 83 82 82 82 82 80 80 78 80 78 81 82 82 80 79 78 78 77 76 75 75 74 74 73
85 83 83 84 85 83 84 83 80 79 77 73 73 74 75 75 75 76 81 81 81 80 78 78 77 75 74 73 73 73 72 71 70
84 81 83 84 83 82 81 79 74 72 71 71 71 69 71 71 71 76 80 79 79 78 76 72 70 72 71 71 71 70 70 69 67
81 80 81 81 82 79 76 73 73 72 69 68 69 70 69 68 69 74 74 75 75 72 71 71 70 69 69 69 71 71 67 67 66
82 80 81 79 79 78 72 74 72 72 69 67 70 66 69 71 69 72 73 71 68 69 68 68 67 67 67 67 70 62 62 65 66
82 82 81 80 79 80 76 74 73 72 68 68 68 68 70 71 72 71 69 68 66 65 66 67 65 65 65 65 65 61 61 62 67
81 81 80 80 81 82 76 77 75 73 71 69 68 69 70 73 72 70 69 67 65 65 65 65 64 64 64 64 63 59 59 62 66
82 82 82 83 83 78 74 74 72 70 68 71 72 71 73 73 72 70 69 67 66 65 65 64 63 63 63 63 62 58 58 64 67
80 81 80 80 78 74 73 72 74 70 69 70 71 73 74 73 73 71 69 68 66 65 66 65 67 64 64 61 62 56 57 63 69
80 80 79 78 73 73 75 75 74 68 68 69 73 74 73 72 72 70 69 68 66 65 65 64 64 63 63 64 63 60 56 56 66
75 76 76 73 72 76 76 75 72 70 68 70 71 73 72 70 69 69 70 67 65 65 64 62 62 62 64 66 64 56 56 55 56
69 75 73 73 76 74 73 73 73 71 68 70 71 71 69 69 68 68 68 66 65 65 64 65 65 66 67 67 67 66 55 54 55
67 68 69 71 73 70 69 73 74 72 69 72 70 68 68 67 67 67 68 69 68 68 67 67 67 67 67 68 68 69 69 68 66
66 66 68 69 70 68 69 72 71 71 71 71 70 69 68 68 68 69 66 69 68 69 68 67 69 69 70 69 69 70 62 62 68
66 65 67 67 70 71 70 70 70 69 70 71 70 68 69 70 70 69 69 68 66 53 54 51 50 50 59 70 57 50 49 47 46
63 68 70 70 69 70 69 68 67 69 71 71 71 70 69 69 68 69 69 69 68 58 61 51 49 47 47 47 51 48 46 45 45

GFSFLT1_sfc_temp_291.txt.gz
Temp
103 103 104 104 103 103 100 99 97 95 90 87 89 89 89 89 89 92 92 90 92 95 94 91 87 87 87 87 86 86 84 87 85
101 103 103 103 105 104 102 98 96 95 90 89 89 91 89 88 89 91 89 91 91 92 92 89 87 87 87 87 87 85 84 86 83
102 103 103 105 105 104 103 101 98 96 92 89 90 91 90 90 90 90 89 89 89 90 90 88 87 87 87 87 83 83 82 84 81
103 104 103 105 105 104 103 101 98 96 93 91 90 91 90 89 90 90 88 89 89 89 88 87 86 85 85 85 84 82 81 81 79
103 103 105 105 105 103 100 98 96 94 93 91 92 91 89 89 89 87 89 89 89 89 87 86 85 83 82 82 79 78 78 78 79
101 99 103 103 103 98 97 96 92 92 92 91 93 86 88 87 85 86 88 89 88 89 85 81 81 81 79 79 79 79 79 78 76
101 98 98 101 99 97 94 92 90 90 89 91 88 85 87 84 84 86 89 88 87 85 84 81 79 80 80 79 79 78 78 76 75
97 95 95 97 96 94 91 89 87 88 88 86 84 84 85 83 84 83 83 81 83 76 80 78 79 78 78 79 79 75 74 76 75
94 94 96 95 94 91 87 85 85 85 84 83 83 83 82 80 80 78 75 72 74 74 75 75 74 76 76 76 77 64 66 73 74
96 94 94 92 91 87 87 86 86 84 83 84 82 82 78 76 77 76 74 72 72 72 71 72 71 74 74 72 69 63 65 71 76
97 96 94 91 90 89 88 90 87 84 84 81 80 80 79 78 76 77 73 71 70 69 68 71 72 73 73 70 67 62 64 67 74
98 97 94 93 92 91 89 87 86 84 83 80 80 78 78 77 75 74 73 72 72 73 73 73 72 73 71 69 67 61 62 62 76
96 98 95 94 94 93 91 88 86 84 81 79 78 79 78 78 76 74 73 74 74 74 74 74 76 73 72 68 68 60 60 64 79
94 96 95 96 95 92 90 90 87 85 83 80 80 81 81 78 76 74 75 73 73 74 74 73 73 72 71 72 70 65 60 60 72
90 92 94 95 93 90 90 88 86 85 83 83 81 80 79 78 77 76 74 73 73 74 72 70 69 69 71 74 71 65 59 61 59
89 91 91 93 89 87 85 86 86 85 83 82 81 78 76 75 75 74 74 73 73 73 72 73 72 72 74 75 74 73 59 60 58
88 88 88 91 87 82 82 82 85 85 79 80 76 76 74 73 74 71 75 78 76 77 76 76 76 75 76 78 77 77 75 72 70
83 85 88 83 81 80 83 84 82 81 75 74 73 73 73 74 75 77 76 79 78 80 76 74 79 79 79 78 76 73 63 66 74
78 80 82 85 85 83 83 79 77 76 76 74 73 74 77 79 79 79 80 77 76 53 56 53 51 51 60 75 58 54 53 51 49
75 81 81 80 80 77 79 79 79 77 77 78 79 79 78 73 75 81 80 79 77 73 66 54 53 51 52 51 51 51 48 47 46